TimeEST,TemperatureF,Dew PointF,Humidity,Sea Level PressureIn,VisibilityMPH,Wind Direction,Wind SpeedMPH,Gust SpeedMPH,PrecipitationIn,Events,Conditions,WindDirDegrees,DateUTC
12:52 AM,61.0,51.1,70,29.87,10.0,South,13.8,21.9,N/A,,Clear,170,2013-01-30 05:52:00
1:52 AM,62.1,52.0,70,29.83,10.0,SSW,12.7,28.8,N/A,,Scattered Clouds,200,2013-01-30 06:52:00
2:35 AM,62.6,51.8,68,29.89,10.0,South,15.0,33.4,N/A,,Mostly Cloudy,190,2013-01-30 07:35:00
2:52 AM,62.1,52.0,70,29.78,10.0,SSE,16.1,36.8,N/A,,Mostly Cloudy,160,2013-01-30 07:52:00
2:59 AM,62.6,51.8,68,29.87,10.0,South,20.7,36.8,N/A,,Scattered Clouds,170,2013-01-30 07:59:00
3:52 AM,62.1,52.0,70,29.78,10.0,South,17.3,27.6,N/A,,Scattered Clouds,190,2013-01-30 08:52:00
4:52 AM,63.0,51.1,65,29.74,10.0,South,23.0,34.5,N/A,,Partly Cloudy,180,2013-01-30 09:52:00
5:52 AM,64.0,51.1,63,29.71,10.0,South,9.2,24.2,N/A,,Scattered Clouds,170,2013-01-30 10:52:00
6:52 AM,64.0,51.1,63,29.69,10.0,South,16.1,34.5,N/A,,Overcast,170,2013-01-30 11:52:00
7:52 AM,63.0,52.0,67,29.65,10.0,South,17.3,32.2,N/A,,Partly Cloudy,170,2013-01-30 12:52:00
8:52 AM,64.0,53.1,67,29.67,10.0,South,15.0,28.8,0.00,Rain,Light Rain,190,2013-01-30 13:52:00
9:52 AM,64.0,53.1,67,29.64,10.0,South,19.6,32.2,0.01,,Overcast,180,2013-01-30 14:52:00
10:52 AM,66.0,53.1,63,29.63,10.0,South,16.1,31.1,0.00,,Overcast,190,2013-01-30 15:52:00
11:52 AM,64.0,54.0,70,29.62,10.0,WSW,16.1,20.7,0.01,Rain,Light Rain,250,2013-01-30 16:52:00
12:09 PM,57.2,51.8,82,29.70,5.0,NW,9.2,-,0.02,Rain,Rain,310,2013-01-30 17:09:00
12:41 PM,55.4,51.8,88,29.66,4.0,WNW,4.6,-,0.10,Rain,Rain,290,2013-01-30 17:41:00
12:52 PM,55.9,52.0,87,29.61,1.5,WNW,9.2,-,0.22,Rain,Heavy Rain,290,2013-01-30 17:52:00
1:14 PM,53.6,51.8,94,29.67,2.0,West,6.9,-,0.18,Rain,Heavy Rain,280,2013-01-30 18:14:00
1:28 PM,53.6,51.8,94,29.66,1.8,West,5.8,-,0.24,Rain,Heavy Rain,260,2013-01-30 18:28:00
1:31 PM,53.6,51.8,94,29.66,2.0,West,6.9,-,0.25,Rain,Heavy Rain,260,2013-01-30 18:31:00
1:52 PM,54.0,51.1,90,29.58,3.0,Calm,Calm,-,0.32,Rain,Rain,0,2013-01-30 18:52:00
2:11 PM,53.6,51.8,94,29.64,2.5,SW,3.5,-,0.06,Rain,Rain,220,2013-01-30 19:11:00
2:25 PM,55.4,51.8,88,29.63,4.0,WSW,4.6,-,0.10,Rain,Rain,240,2013-01-30 19:25:00
2:52 PM,55.0,51.1,86,29.54,4.0,Calm,Calm,-,0.16,Rain,Light Rain,0,2013-01-30 19:52:00
3:00 PM,55.4,51.8,88,29.61,1.8,West,4.6,-,0.05,Rain,Rain,260,2013-01-30 20:00:00
3:26 PM,55.4,51.8,88,29.61,2.5,WSW,9.2,-,0.25,Rain,Rain,250,2013-01-30 20:26:00
3:35 PM,55.4,51.8,88,29.64,3.0,WSW,11.5,-,0.28,Rain,Rain,240,2013-01-30 20:35:00
3:52 PM,55.0,51.1,86,29.54,8.0,WSW,9.2,24.2,0.33,Rain-Thunderstorm,Light Rain,250,2013-01-30 20:52:00
4:01 PM,55.4,51.8,88,29.57,10.0,West,8.1,16.1,0.02,Rain,Light Rain,270,2013-01-30 21:01:00
4:52 PM,55.0,50.0,83,29.48,9.0,SW,3.5,-,0.07,Rain,Light Rain,220,2013-01-30 21:52:00
5:52 PM,55.0,50.0,83,29.44,6.0,South,8.1,-,0.15,Rain,Rain,180,2013-01-30 22:52:00
6:39 PM,55.4,50.0,82,29.48,10.0,SSW,4.6,-,0.14,Rain,Light Rain,200,2013-01-30 23:39:00
6:52 PM,55.9,51.1,84,29.39,10.0,SSW,4.6,-,0.15,Rain,Light Rain,200,2013-01-30 23:52:00
7:22 PM,55.4,51.8,88,29.46,9.0,Calm,Calm,-,0.05,Rain,Light Rain,0,2013-01-31 00:22:00
7:34 PM,55.4,51.8,88,29.48,8.0,West,6.9,-,0.07,Rain,Light Rain,270,2013-01-31 00:34:00
7:52 PM,54.0,51.1,90,29.39,4.0,WSW,4.6,-,0.13,Rain,Rain,250,2013-01-31 00:52:00
8:07 PM,53.6,51.8,94,29.46,4.0,WSW,18.4,27.6,0.06,Rain,Rain,250,2013-01-31 01:07:00
8:19 PM,53.6,48.2,82,29.47,6.0,WSW,23.0,34.5,0.09,Rain,Rain,250,2013-01-31 01:19:00
8:52 PM,52.0,46.0,80,29.42,10.0,West,27.6,35.7,0.14,Rain,Light Rain,270,2013-01-31 01:52:00
9:03 PM,50.0,42.8,76,29.46,10.0,West,20.7,40.3,0.01,Rain,Light Rain,260,2013-01-31 02:03:00
9:52 PM,46.9,41.0,80,29.40,10.0,West,12.7,24.2,0.03,Rain,Light Rain,260,2013-01-31 02:52:00
10:15 PM,46.4,41.0,81,29.46,9.0,West,11.5,19.6,0.02,Rain,Light Rain,260,2013-01-31 03:15:00
10:20 PM,46.4,41.0,81,29.45,10.0,West,13.8,19.6,0.03,Rain,Light Rain,270,2013-01-31 03:20:00
10:39 PM,44.6,41.0,87,29.41,10.0,WSW,13.8,17.3,0.03,Rain,Light Rain,240,2013-01-31 03:39:00
10:52 PM,46.0,39.9,79,29.37,10.0,West,16.1,-,0.03,,Overcast,260,2013-01-31 03:52:00
10:59 PM,44.6,39.2,81,29.43,10.0,West,13.8,-,0.00,Rain,Light Rain,260,2013-01-31 03:59:00
11:32 PM,44.6,37.4,76,29.43,10.0,West,13.8,21.9,0.00,,Overcast,260,2013-01-31 04:32:00
11:52 PM,44.1,37.9,79,29.39,10.0,WSW,18.4,24.2,0.00,,Overcast,250,2013-01-31 04:52:00